Location: Staunton
(38.1490°N, 79.0720°W)
Time: 14:47:22
(UTC-04:00)

ISS - Pass Details

Date: 23 July 2017
Orbit: 400 x 408 km, 51.6° (Epoch: 21 July)

Event Time Altitude Azimuth Distance (km) Brightness Sun altitude
Rises 05:16:00 0° 307° (NW) 2,314 -0.2 -10.2°
Reaches altitude 10° 05:18:05 10° 305° (NW) 1,453 -1.2 -9.9°
Maximum altitude 05:21:19 67° 222° (SW) 437 -3.9 -9.4°
Drops below altitude 10° 05:24:33 10° 139° (SE) 1,449 -0.9 -8.8°
Sets 05:26:38 0° 136° (SE) 2,306 0.1 -8.5°
